GW0496 Weather Reports


time (UTC)temp
F
wind
direction
speed
knots
gust
knots
rain 1hr
in
rain 24hr
in
rain mn
in
humidity
%
barometer
mb
20260507160954 59 277 0.0 0.0 0.00 0.22 0.22 70 1007.2
20260507160449 59 291 0.0 0.0 0.00 0.22 0.22 73 1007.1
20260507155945 59 306 0.0 0.0 0.00 0.22 0.22 73 1007.3
20260507155441 59 246 0.0 0.0 0.00 0.22 0.22 70 1007.5
20260507154939 58 269 0.0 0.0 0.00 0.22 0.22 72 1007.5
20260507154435 58 302 0.0 0.0 0.00 0.22 0.22 74 1007.5
20260507153932 57 346 0.0 0.0 0.00 0.22 0.22 78 1007.4
20260507153429 56 312 0.0 0.0 0.00 0.22 0.22 80 1007.4
20260507152925 57 258 0.0 0.0 0.00 0.22 0.22 74 1007.6
20260507152422 57 317 0.0 0.0 0.00 0.22 0.22 76 1007.6
20260507151917 56 290 0.0 0.0 0.00 0.22 0.22 75 1007.7
20260507151415 57 296 0.0 0.0 0.00 0.22 0.22 76 1007.8
20260507150911 56 296 0.0 0.0 0.00 0.22 0.22 77 1007.6
20260507150408 55 293 0.0 0.0 0.00 0.22 0.22 79 1007.6
20260507145904 55 341 0.0 0.0 0.00 0.22 0.22 80 1007.5
20260507145400 54 297 0.0 0.0 0.00 0.22 0.22 81 1007.5
20260507144857 54 343 0.0 0.0 0.00 0.22 0.22 83 1007.8
20260507144355 54 303 0.0 0.0 0.00 0.22 0.22 86 1007.6
20260507143851 53 317 0.0 0.0 0.00 0.22 0.22 85 1007.6
20260507143348 53 265 0.0 0.0 0.00 0.22 0.22 85 1007.7
20260507142845 52 358 0.0 0.0 0.00 0.22 0.22 86 1007.8
20260507142341 52 263 0.0 0.0 0.00 0.22 0.22 85 1007.9
20260507141838 53 73 0.0 0.0 0.00 0.22 0.22 83 1007.9
20260507141335 52 313 0.0 0.0 0.00 0.22 0.22 85 1008.0
20260507140831 52 351 0.0 0.0 0.07 0.22 0.22 87 1007.6
20260507140328 51 289 0.0 0.0 0.07 0.22 0.22 84 1007.8
20260507135826 51 317 0.0 0.0 0.00 0.21 0.21 87 1007.8
20260507135322 51 308 0.0 0.0 0.00 0.21 0.21 89 1007.6
20260507134820 50 312 0.0 0.0 0.00 0.21 0.21 90 1007.7
20260507134316 50 324 0.0 0.0 0.00 0.21 0.21 89 1007.6
20260507133812 50 313 0.0 0.0 0.00 0.21 0.21 88 1007.8
20260507133308 50 317 0.0 0.0 0.00 0.21 0.21 89 1007.7
20260507132806 50 316 0.0 0.0 0.00 0.21 0.21 90 1007.5
20260507132306 50 315 0.0 0.0 0.00 0.21 0.21 91 1007.7
20260507131800 49 312 0.0 0.0 0.00 0.21 0.21 91 1007.7
20260507131256 49 315 0.0 0.0 0.00 0.21 0.21 93 1007.2
20260507130753 49 321 0.0 0.0 0.00 0.21 0.21 92 1007.2
20260507130251 48 316 0.0 0.0 0.00 0.21 0.21 93 1007.4
20260507125749 48 320 0.0 0.0 0.00 0.21 0.21 93 1007.4
20260507125246 48 9 0.0 0.0 0.00 0.21 0.21 92 1007.5
20260507124743 48 289 0.0 0.0 0.05 0.21 0.21 92 1007.9
20260507124240 48 318 0.0 0.0 0.05 0.21 0.21 93 1008.0
20260507123738 48 348 0.0 0.0 0.00 0.20 0.20 92 1008.0
20260507123236 48 312 0.0 0.0 0.00 0.20 0.20 92 1007.9
20260507122731 48 62 0.0 0.0 0.00 0.20 0.20 90 1008.1
20260507122227 48 313 0.0 0.0 0.00 0.20 0.20 92 1008.0
20260507121722 48 315 0.0 0.0 0.00 0.20 0.20 93 1007.8
20260507121218 48 324 0.0 0.0 0.07 0.20 0.20 93 1007.6
20260507120715 48 313 0.0 0.0 0.07 0.20 0.20 94 1007.3
20260507120212 48 19 0.0 0.9 0.00 0.19 0.19 92 1007.5
20260507115708 48 27 0.0 0.0 0.00 0.19 0.19 92 1007.8
20260507115204 48 318 0.0 0.0 0.00 0.19 0.19 92 1007.8
20260507114659 49 20 0.0 0.0 0.00 0.19 0.19 92 1007.6
20260507114157 49 356 0.0 0.0 0.00 0.19 0.19 92 1007.6
20260507113654 50 15 0.0 0.0 0.00 0.19 0.19 94 1007.2
20260507113151 50 319 0.0 0.0 0.00 0.19 0.19 95 1007.4
20260507112649 50 6 0.0 0.0 0.00 0.19 0.19 95 1007.8
20260507112145 50 312 0.0 0.0 0.00 0.19 0.19 95 1007.7
20260507111643 50 308 0.0 0.0 0.00 0.19 0.19 95 1007.5
20260507111139 50 309 0.0 0.0 0.00 0.19 0.19 96 1007.4
20260507110636 50 264 0.0 0.0 0.00 0.19 0.19 95 1006.9
20260507110133 50 314 0.0 0.0 0.07 0.19 0.19 95 1006.5
20260507105629 50 319 0.0 0.0 0.07 0.19 0.19 95 1006.7
20260507105125 50 320 0.0 0.0 0.00 0.18 0.18 95 1006.7
20260507104623 50 49 0.0 0.0 0.05 0.18 0.18 95 1006.8
20260507104119 50 337 0.0 0.0 0.05 0.18 0.18 94 1006.7
20260507103615 51 335 0.0 0.0 0.00 0.17 0.17 94 1006.5
20260507103112 51 12 1.7 5.2 0.00 0.17 0.17 94 1006.6
20260507102609 51 356 0.0 0.0 0.00 0.17 0.17 95 1006.6
20260507102105 51 355 0.0 0.9 0.00 0.17 0.17 96 1006.7
20260507101601 51 337 0.0 0.0 0.00 0.17 0.17 97 1006.7
20260507101057 51 301 0.0 0.0 0.00 0.17 0.17 97 1006.4
20260507100554 52 309 0.9 1.7 0.00 0.17 0.17 98 1006.1
20260507100053 52 283 0.0 0.0 0.07 0.17 0.17 98 1005.9
20260507095550 52 323 0.0 0.0 0.07 0.17 0.17 98 1005.6
20260507095047 52 41 0.0 0.0 0.05 0.16 0.16 98 1005.8
20260507094542 52 321 0.0 0.0 0.05 0.16 0.16 98 1006.0
20260507094039 52 21 0.0 0.0 0.17 0.16 0.16 98 1005.6
20260507093537 52 309 0.0 0.0 0.19 0.15 0.15 99 1006.0
20260507093036 53 320 0.0 0.0 0.24 0.13 0.13 99 1005.9
20260507092532 53 291 0.0 0.0 0.47 0.12 0.12 99 1005.9
20260507092029 52 317 0.0 0.0 0.42 0.10 0.10 99 1006.0
20260507091525 52 282 0.0 0.0 0.07 0.04 0.04 99 1006.3
20260507091021 51 15 0.0 0.0 0.05 0.03 0.03 99 1005.5
20260507090517 51 318 0.0 0.0 0.05 0.03 0.03 99 1005.5
20260507090015 51 328 0.0 0.0 0.00 0.02 0.02 99 1005.9
20260507085511 51 293 0.0 0.0 0.07 0.02 0.02 99 1005.8
20260507085008 51 283 0.0 0.0 0.07 0.02 0.02 99 1006.2
20260507084505 51 329 0.0 0.0 0.00 0.01 0.01 99 1006.1
20260507084002 51 299 0.0 0.0 0.05 0.01 0.01 99 1006.3
20260507083458 51 319 0.0 0.0 0.05 0.01 0.01 99 1006.4
20260507082955 51 279 0.0 0.0 0.00 0.00 0.00 99 1006.9
20260507082451 51 265 0.0 0.0 0.00 0.00 0.00 99 1006.6
20260507081947 51 308 0.0 0.0 0.00 0.00 0.00 99 1006.0
20260507081443 51 238 1.7 4.3 0.00 0.00 0.00 99 1005.7
20260507080941 51 314 0.0 0.0 0.00 0.00 0.00 99 1005.4
20260507080436 51 300 0.0 0.0 0.00 0.00 0.00 99 1005.3
20260507075932 51 265 0.0 0.0 0.00 0.00 0.00 98 1005.1
20260507075428 51 311 0.0 0.0 0.00 0.00 0.00 99 1005.3
20260507074925 51 311 0.0 0.0 0.00 0.00 0.00 98 1005.4
20260507074422 51 267 0.0 0.0 0.00 0.00 0.00 98 1005.7
20260507073920 51 312 0.0 0.0 0.00 0.00 0.00 98 1005.5
20260507073416 51 296 0.0 0.0 0.00 0.00 0.00 98 1005.4
20260507072913 51 304 0.0 0.0 0.00 0.00 0.00 98 1005.5
20260507072410 51 295 0.0 0.0 0.00 0.00 0.00 98 1005.7
20260507071908 51 308 0.0 0.0 0.00 0.00 0.00 98 1005.6
20260507071405 51 292 0.0 0.0 0.00 0.00 0.00 98 1005.5
20260507070901 51 279 0.0 0.0 0.00 0.00 0.00 98 1005.7
20260507070359 51 267 0.0 0.9 0.00 0.00 0.00 98 1005.5
20260507065855 51 314 0.0 0.0 0.00 0.00 0.00 98 1006.1
20260507065352 52 313 0.0 0.0 0.00 0.00 0.00 98 1006.1
20260507064849 52 310 0.0 0.0 0.00 0.00 0.00 98 1006.0
20260507064348 52 262 0.0 0.0 0.00 0.00 0.00 98 1005.7
20260507063845 52 312 0.0 0.0 0.00 0.00 0.00 98 1005.7
20260507063342 52 312 0.0 0.0 0.00 0.00 0.00 98 1005.9
20260507062839 53 308 0.0 0.0 0.00 0.00 0.00 98 1006.0
20260507062336 53 279 0.0 0.0 0.00 0.00 0.00 98 1005.9
20260507061834 53 315 0.0 0.0 0.00 0.00 0.00 98 1006.1
20260507061331 52 309 0.0 0.0 0.00 0.00 0.00 98 1006.0
20260507060830 52 311 0.0 0.0 0.00 0.00 0.00 98 1006.1
20260507060326 52 297 0.0 0.0 0.00 0.00 0.00 98 1006.3
20260507055823 52 311 0.0 0.0 0.00 0.00 0.00 98 1006.4
20260507055318 52 318 0.0 0.0 0.00 0.00 0.00 98 1006.3
20260507054815 52 297 0.0 0.0 0.00 0.00 0.00 98 1006.4
20260507054311 52 315 0.0 0.0 0.00 0.00 0.00 98 1006.5
20260507053808 52 314 0.0 0.0 0.00 0.00 0.00 98 1006.4
20260507053306 52 314 0.0 0.0 0.00 0.00 0.00 98 1006.4
20260507052805 52 264 0.9 4.3 0.00 0.00 0.00 98 1006.7
20260507052300 52 286 0.0 0.0 0.00 0.00 0.00 98 1006.6
20260507051759 52 280 3.5 6.1 0.00 0.00 0.00 98 1006.6
20260507051256 52 278 1.7 4.3 0.00 0.00 0.00 98 1006.9
20260507050752 52 262 0.0 0.0 0.00 0.00 0.00 98 1007.0
20260507050249 52 276 0.0 0.0 0.00 0.00 0.00 98 1007.0
20260507045746 52 252 0.9 2.6 0.00 0.00 0.00 98 1007.1
20260507045242 52 286 0.9 4.3 0.00 0.00 0.00 98 1006.9
20260507044740 52 267 0.0 0.0 0.00 0.00 0.00 98 1007.0
20260507044236 53 303 0.0 0.0 0.00 0.00 0.00 98 1006.9
20260507043732 53 287 0.0 0.0 0.00 0.00 0.00 98 1006.9
20260507043229 53 277 0.0 0.0 0.00 0.00 0.00 98 1006.9
20260507042725 53 309 0.9 2.6 0.00 0.00 0.00 97 1006.9
20260507042220 53 301 0.0 0.0 0.00 0.00 0.00 97 1007.1
20260507041718 53 274 0.0 0.9 0.00 0.00 0.00 97 1006.8
20260507041214 53 239 2.6 5.2 0.00 0.00 0.00 97 1007.1
20260507040712 54 253 5.2 12.2 0.00 0.00 0.00 97 1007.4
20260507040207 54 297 1.7 2.6 0.00 0.00 0.00 97 1007.4
20260507035703 54 223 6.1 8.7 0.00 0.17 0.17 97 1007.5
20260507035159 54 273 0.0 0.9 0.00 0.17 0.17 97 1007.2
20260507034656 54 275 1.7 2.6 0.00 0.17 0.17 96 1007.3
20260507034154 54 283 0.0 1.7 0.00 0.17 0.17 96 1007.3
20260507033652 54 280 0.9 1.7 0.00 0.17 0.17 96 1007.2
20260507033149 54 277 2.6 5.2 0.00 0.17 0.17 96 1007.4
20260507032646 54 280 0.0 0.9 0.00 0.17 0.17 96 1007.0
20260507032142 54 248 2.6 7.0 0.00 0.17 0.17 96 1007.0
20260507031639 55 308 5.2 7.8 0.00 0.17 0.17 96 1007.0
20260507031135 55 292 0.0 0.0 0.00 0.17 0.17 96 1007.1
20260507030632 55 268 2.6 7.0 0.00 0.17 0.17 96 1007.1
20260507030131 55 259 2.6 7.8 0.00 0.17 0.17 96 1007.1
20260507025627 55 249 0.0 1.7 0.00 0.17 0.17 96 1006.9
20260507025124 55 347 1.7 4.3 0.00 0.17 0.17 96 1007.0
20260507024622 55 236 3.5 9.6 0.00 0.17 0.17 96 1007.2
20260507024119 55 273 1.7 5.2 0.00 0.17 0.17 96 1007.3
20260507023614 55 279 6.1 7.8 0.00 0.17 0.17 95 1007.3
20260507023112 55 297 0.0 0.0 0.00 0.17 0.17 95 1007.6
20260507022609 55 265 0.9 1.7 0.00 0.17 0.17 95 1007.5
20260507022104 55 252 1.7 4.3 0.00 0.17 0.17 95 1007.6
20260507021601 55 245 0.0 0.0 0.00 0.17 0.17 95 1007.7
20260507021057 55 259 0.0 0.0 0.00 0.17 0.17 95 1007.5
20260507020555 55 303 0.0 0.0 0.00 0.17 0.17 95 1007.9
20260507020051 55 337 0.0 0.0 0.00 0.17 0.17 95 1007.7
20260507015549 55 304 0.0 0.0 0.00 0.17 0.17 95 1007.5
20260507015046 55 287 0.9 4.3 0.00 0.17 0.17 95 1007.7
20260507014543 56 240 1.7 6.1 0.00 0.17 0.17 95 1007.7
20260507014033 56 276 0.9 4.3 0.00 0.17 0.17 94 1007.8
20260507013530 56 302 0.0 0.9 0.00 0.17 0.17 94 1007.7
20260507013027 56 297 0.9 2.6 0.00 0.17 0.17 94 1007.8
20260507012524 57 270 7.8 11.3 0.00 0.17 0.17 94 1007.7
20260507012020 57 25 7.8 13.0 0.00 0.17 0.17 94 1007.6
20260507011518 57 235 6.1 13.0 0.00 0.17 0.17 94 1007.6
20260507011014 57 241 5.2 7.8 0.00 0.17 0.17 94 1007.7
20260507010508 57 274 3.5 7.8 0.00 0.17 0.17 94 1008.0
20260507010005 57 235 1.7 5.2 0.00 0.17 0.17 94 1007.7
20260507005503 57 285 1.7 6.1 0.00 0.17 0.17 95 1007.7
20260507004959 57 272 0.0 0.9 0.00 0.17 0.17 95 1007.7
20260507004456 57 217 0.0 0.0 0.00 0.17 0.17 95 1007.8
20260507003954 57 192 4.3 9.6 0.00 0.17 0.17 95 1007.7
20260507003448 57 268 1.7 7.0 0.00 0.17 0.17 96 1007.6
20260507002943 57 315 0.0 0.0 0.07 0.17 0.17 96 1008.0
20260507002440 57 296 0.0 2.6 0.12 0.17 0.17 96 1007.7
20260507001937 56 323 0.0 0.0 0.05 0.16 0.16 96 1007.6
20260507001434 56 296 4.3 6.1 0.00 0.15 0.15 95 1007.8
20260507000932 56 259 0.0 0.0 0.19 0.15 0.15 95 1007.7
20260507000427 56 299 0.0 0.0 0.31 0.15 0.15 95 1007.8
20260506235922 56 282 0.0 0.0 0.12 0.12 0.12 95 1007.8
20260506235420 56 345 0.0 0.0 0.00 0.10 0.10 94 1007.7
20260506234910 57 283 0.0 0.0 0.00 0.10 0.10 94 1007.7
20260506234408 56 304 0.0 0.0 0.07 0.10 0.10 95 1007.9
20260506233906 56 229 0.0 0.0 0.07 0.10 0.10 95 1007.4
20260506233401 56 293 0.0 0.0 0.05 0.09 0.09 95 1007.8
20260506232858 56 223 0.0 0.0 0.05 0.09 0.09 95 1007.7
20260506232354 56 310 0.0 0.0 0.07 0.08 0.08 94 1007.6
20260506231850 56 223 0.0 0.0 0.12 0.08 0.08 94 1007.7
20260506231348 57 285 0.9 1.7 0.12 0.07 0.07 94 1008.0
20260506230846 57 273 0.9 2.6 0.12 0.06 0.06 94 1008.0
20260506230342 57 249 0.0 0.0 0.05 0.05 0.05 94 1008.2
20260506225838 57 257 0.0 0.0 0.07 0.04 0.04 94 1008.2
20260506225336 57 191 0.0 0.0 0.12 0.04 0.04 93 1008.3
20260506224833 57 194 0.0 0.9 0.05 0.03 0.03 92 1008.2
20260506224330 57 268 1.7 5.2 0.00 0.02 0.02 92 1008.5
20260506223826 57 282 0.9 2.6 0.07 0.02 0.02 92 1008.5
20260506223321 57 259 0.0 0.0 0.12 0.02 0.02 91 1008.4
20260506222819 58 224 0.0 0.0 0.05 0.01 0.01 89 1008.3
20260506222314 58 251 0.0 0.0 0.00 0.00 0.00 88 1008.3
20260506221813 58 245 1.7 5.2 0.00 0.00 0.00 86 1008.5
20260506221310 58 247 0.0 0.9 0.00 0.00 0.00 86 1008.3
20260506220807 58 257 0.0 1.7 0.00 0.00 0.00 86 1008.3
20260506220302 58 284 0.0 0.0 0.00 0.00 0.00 86 1008.2
20260506215759 59 124 0.9 6.1 0.00 0.00 0.00 86 1008.3
20260506215255 59 246 0.0 0.0 0.00 0.00 0.00 83 1008.4
20260506214751 59 3 0.0 0.0 0.00 0.00 0.00 82 1008.3
20260506214248 59 209 0.0 0.0 0.00 0.00 0.00 81 1008.3
20260506213746 59 319 0.0 0.9 0.00 0.00 0.00 82 1008.5
20260506213243 59 235 0.0 0.0 0.00 0.00 0.00 82 1008.4
20260506212740 59 275 0.0 0.0 0.00 0.00 0.00 83 1008.6
20260506212236 59 296 0.0 0.9 0.00 0.00 0.00 83 1008.8
20260506211731 59 294 0.0 0.0 0.00 0.00 0.00 83 1008.7
20260506211228 59 327 0.0 0.0 0.00 0.00 0.00 83 1008.5
20260506210725 60 1 0.0 1.7 0.00 0.00 0.00 81 1008.8
20260506210222 60 281 0.9 2.6 0.00 0.00 0.00 79 1008.6
20260506205719 60 304 0.0 0.0 0.00 0.00 0.00 79 1009.0
20260506205214 60 317 0.0 0.0 0.00 0.00 0.00 80 1008.4
20260506204712 60 347 0.9 2.6 0.00 0.00 0.00 79 1008.6
20260506204209 60 318 0.0 0.0 0.00 0.00 0.00 79 1008.8
20260506203707 60 319 0.0 0.0 0.00 0.00 0.00 80 1008.8
20260506203204 60 177 1.7 6.1 0.00 0.00 0.00 80 1009.0
20260506202702 60 232 0.0 0.0 0.00 0.00 0.00 78 1009.0
20260506202157 60 193 0.0 0.0 0.00 0.00 0.00 78 1009.1
20260506201654 60 237 0.0 0.0 0.00 0.00 0.00 78 1008.8
20260506201150 60 230 0.0 0.0 0.00 0.00 0.00 78 1009.1
20260506200648 60 287 0.0 0.0 0.00 0.00 0.00 77 1009.0
20260506200144 60 261 0.0 0.0 0.00 0.00 0.00 77 1009.4
20260506195641 60 291 0.0 0.0 0.00 0.00 0.00 77 1009.3
20260506195137 60 299 0.0 0.0 0.00 0.00 0.00 76 1009.3
20260506194635 61 302 0.0 0.0 0.00 0.00 0.00 76 1009.2
20260506194131 61 311 0.0 0.0 0.00 0.00 0.00 76 1009.4
20260506193629 60 310 0.0 0.0 0.00 0.00 0.00 77 1009.7
20260506193126 60 298 0.9 1.7 0.00 0.00 0.00 77 1009.5
20260506192622 60 312 0.0 0.0 0.00 0.00 0.00 77 1009.6
20260506192118 60 343 0.0 0.9 0.00 0.00 0.00 77 1009.5
20260506191615 60 279 0.0 0.0 0.00 0.00 0.00 77 1009.5
20260506191111 60 86 0.0 0.0 0.00 0.00 0.00 77 1009.7
20260506190609 60 332 0.0 0.9 0.00 0.00 0.00 77 1009.5
20260506190106 60 162 0.0 0.0 0.00 0.00 0.00 77 1009.7
20260506185603 60 322 0.0 0.0 0.00 0.00 0.00 76 1009.4
20260506185059 61 266 0.0 1.7 0.00 0.00 0.00 76 1009.6
20260506184556 61 305 0.0 0.9 0.00 0.00 0.00 75 1009.8
20260506184054 62 290 0.0 0.0 0.00 0.00 0.00 74 1009.8
20260506183549 61 255 0.0 0.0 0.00 0.00 0.00 75 1010.1
20260506183046 61 250 1.7 2.6 0.00 0.00 0.00 74 1010.2
20260506182544 61 302 0.0 0.0 0.00 0.00 0.00 75 1010.2
20260506182041 62 262 0.0 1.7 0.00 0.00 0.00 74 1010.2
20260506181539 61 308 0.0 0.9 0.00 0.00 0.00 74 1010.3
20260506181035 61 232 0.0 0.9 0.00 0.00 0.00 75 1010.5
20260506180532 62 284 0.0 0.9 0.00 0.00 0.00 75 1010.6
20260506180029 62 259 0.0 0.0 0.00 0.00 0.00 74 1010.8
20260506175525 62 193 0.0 0.9 0.00 0.00 0.00 74 1010.8
20260506175021 63 227 1.7 4.3 0.00 0.00 0.00 73 1010.8
20260506174520 64 258 0.0 1.7 0.00 0.00 0.00 71 1010.8
20260506174016 64 244 0.0 0.0 0.00 0.00 0.00 70 1010.9
20260506173514 64 251 0.0 0.9 0.00 0.00 0.00 71 1010.8
20260506173010 64 288 1.7 7.0 0.00 0.00 0.00 70 1011.0
20260506172508 65 309 0.9 1.7 0.00 0.00 0.00 69 1010.6
20260506172004 65 292 0.0 0.0 0.00 0.00 0.00 70 1010.8
20260506171501 65 294 0.0 0.0 0.00 0.00 0.00 69 1010.8
20260506170959 65 318 0.0 0.0 0.00 0.00 0.00 68 1010.9
20260506170455 65 299 0.0 0.9 0.00 0.00 0.00 69 1011.3
20260506165948 64 288 1.7 2.6 0.00 0.00 0.00 70 1011.6
20260506165447 64 336 2.6 7.0 0.00 0.00 0.00 72 1011.1
20260506164942 64 236 1.7 5.2 0.00 0.00 0.00 71 1011.4
20260506164439 64 197 0.0 0.9 0.00 0.00 0.00 70 1011.4
20260506163937 64 287 0.0 1.7 0.00 0.00 0.00 71 1011.2
20260506163431 64 315 0.0 0.9 0.00 0.00 0.00 71 1011.4
20260506162926 64 291 0.9 2.6 0.00 0.00 0.00 71 1011.8
20260506162424 65 279 4.3 9.6 0.00 0.00 0.00 70 1011.7
20260506161921 65 68 2.6 8.7 0.00 0.00 0.00 69 1011.8
20260506161420 65 267 0.0 0.0 0.00 0.00 0.00 70 1011.6